Карагайлы

Казахстан     49°21′27″N   75°44′19″E
темп.,
°C
ветер,
м/с
пор.,
м/с
влажн.,
%
обл.,
%
осадки,
мм/ч
давл.,
гПа
погр.,
м
1 марта, пн
пн100:00−4ююз111987100 0.2 1019594
03:00−5ююз91888100 0.1 1018528
06:00−4ююз91888100 0.1 1017580
09:00−3ююз91790100 0.1 1017697
12:00−2юз101692100 0.4 1017840
15:000юз101587100 0.1 1016988
18:00−1юз91590100 0.4 1017908
21:00−3юз81593100 0.3 1018575
2 марта, вт
вт200:00−3юз81391100 0.6 1019640
03:00−4юз51292100 0.1 1018383
06:00−4юз51195100 0.3 1018405
09:00−4юз51096100 1.0 1017490
12:00−2юз81196100 2.8 1017763
15:00−1зюз71096100 1.7 1015738
18:00−2зюз61092100 2.2 1015669
21:00−8юз5119274 0.1 1018245
3 марта, ср
ср300:00−14юз5109458 0.1 1021193
03:00−18юз5997100 0.0 1023170
06:00−19юз479999 0.1 102591
09:00−18ююз599690 0.0 1026183
12:00−13юз6108248 0.0 1026382
15:00−11юз6107914 0.0 1025454
18:00−14ююз57867 0.0 1026129
21:00−17ююз55840 0.0 102873
4 марта, чт
чт400:00−17ю558923 0.0 102878
03:00−15ю589155 0.0 1027132
06:00−13ююз5118877 0.0 1027217
09:00−12ююз61285100 0.0 1026256
12:00−8ююз7148595 0.0 1024476
15:00−7ю8138379 0.0 1022522
18:00−10ю598889 0.0 1021200
21:00−11ююв5118788 0.0 1020231
5 марта, пт
пт500:00−8ю6158994 0.0 1016390
03:00−5ю81793100 1.7 1011643
06:00−4зюз101589100 1.9 1012935
09:00−5з101692100 0.2 1017695
12:00−5з91290100 0.4 1022846
15:00−6зюз81183100 0.1 1026787
18:00−9юз6118350 0.1 1029312
21:00−13ююз510820 0.0 1031166